Погода в Плайя-Эсмеральде

Куба     21°01′57″N   76°00′05″W
темп.,
°C
ветер,
м/с
пор.,
м/с
влажн.,
%
обл.,
%
осадки,
мм/ч
давл.,
гПа
погр.,
м
13 июня, вс
вс1323:00+25вюв118386 0.0 101512
02:00+24ю2287100 0.0 101420
05:00+23ю1289100 0.0 101417
08:00+25ю128362 0.0 1015141
11:00+30ююз126388 0.0 1015970
14:00+31ссз225998 0.6 10141205
17:00+28с5571100 1.0 1014437
20:00+26в2380100 2.1 101564
14 июня, пн
пн1423:00+24ююв118897 0.2 101619
02:00+24ююв1186100 0.2 101512
05:00+24юв1184100 0.0 101515
08:00+25юв1384100 0.0 1016161
11:00+30вюв236491 0.0 1017879
14:00+32св2253100 0.0 10151472
17:00+29св5566100 0.0 1015546
20:00+26в378483 0.0 1016212
15 июня, вт
вт1523:00+25в249394 0.6 101781
02:00+24вюв249590 1.3 101698
05:00+24вюв2396100 1.3 101678
08:00+26вюв238866 1.3 1017239
11:00+30в346573 0.0 10181062
14:00+32в345219 0.0 10161557
17:00+31св436699 0.3 1015687
20:00+26всв3686100 1.6 1017179
16 июня, ср
ср1623:00+25в2592100 0.3 1018165
02:00+24в119498 0.3 101616
05:00+24в239470 0.0 101660
08:00+26в358990 0.0 1017358
11:00+31в4565100 0.0 10161155
14:00+32в4457100 0.1 10151333
17:00+30св556852 0.6 1014769
20:00+26в478085 2.0 1016197
17 июня, чт
чт1723:00+25в379189 0.3 1017252
02:00+25в3892100 0.4 1016340
05:00+24в499563 0.0 1015350
08:00+26вюв4687100 0.0 1016443
11:00+30вюв336493 0.0 10161143
14:00+33всв3351100 0.0 10141741
17:00+30всв6667100 0.1 1014801
20:00+26всв698339 0.2 1015477